Location: Sternwarte auf dem Internationalen Platz Vogelsang IP
(50.5721°N, 6.4398°E)
Time: 05:53:24
(UTC+01:00)

Transit 2A Rocket - Pass Details

Date: 10 December 2025
Orbit: 581 x 903 km, 66.7° (Epoch: 13 January)

Event Time Altitude Azimuth Distance (km) Brightness Sun altitude
Rises 17:22:22 0° 322° (NW) 3,533 8.6 -7.9°
Reaches altitude 10° 17:24:57 10° 326° (NW) 2,591 7.8 -8.3°
Maximum altitude 17:30:58 62° 47° (NE) 1,000 5.3 -9.2°
Drops below altitude 10° 17:36:45 10° 128° (SE) 2,489 7.4 -10.0°
Sets 17:39:11 0° 132° (SE) 3,384 8.1 -10.4°
